Location: Sternwarte_Laufen
(47.9344°N, 12.9346°E)
Time: 15:51:28
(UTC+02:00)

ISS - Pass Details

Date: 09 May 2026
Orbit: 414 x 424 km, 51.6° (Epoch: 21 May)

Event Time Altitude Azimuth Distance (km) Brightness Sun altitude
Exits shadow 03:23:57 58° 207° (SSW) 494 -3.8 -17.7°
Drops below altitude 10° 03:27:14 10° 130° (SE) 1,496 -1.0 -17.4°
Sets 03:29:20 0° 126° (SE) 2,359 0.1 -17.2°
